Location: Centerville
(32.8776°N, 96.6203°W)
Time: 13:22:42
(UTC+00:00)

Cosmos 2333 Rocket - Pass Details

Date: 17 June 2021
Orbit: 841 x 861 km, 70.8° (Epoch: 30 July)

Event Time Altitude Azimuth Distance (km) Brightness Sun altitude
Exits shadow 05:38:37 13° 266° (W) 2,313 4.5 -32.5°
Maximum altitude 05:41:43 18° 302° (WNW) 1,961 4.5 -32.7°
Drops below altitude 10° 05:45:36 10° 345° (NNW) 2,491 5.5 -32.9°
Sets 05:48:52 0° 4° (N) 3,427 6.4 -33.0°
